Location: Ansan
(43.6898°N, 0.7731°E)
Time: 07:38:14
(UTC+00:00)

Milstar 3 - Pass Details

Date: 15 May 2026
Orbit: 1097 x 5148 km, 28.2° (Epoch: 6 June)

Event Time Altitude Azimuth Distance (km) Brightness Sun altitude
Rises 20:01:44 0° 252° (WSW) 3,940 6.2 -7.9°
Reaches altitude 10° 20:05:09 10° 235° (SW) 2,940 5.3 -8.4°
Maximum altitude 20:09:51 20° 188° (S) 2,403 4.3 -9.1°
Enters shadow 20:15:14 10° 144° (SE) 3,440 4.7 -9.9°
